Time,TemperatureF,DewpointF,PressureIn,WindDirection,WindDirectionDegrees,WindSpeedMPH,WindSpeedGustMPH,Humidity,HourlyPrecipIn,Conditions,Clouds,dailyrainin,SoftwareType,DateUTC
2013-06-04 00:03:00,77.5,73.0,29.95,WNW,288,2.0,-999.0,85,-99.99,,,0.00,weatherlink.com 1.10,2013-06-04 04:03:00,
2013-06-04 00:18:00,77.5,73.0,29.95,NW,310,3.0,-999.0,86,-99.99,,,0.00,weatherlink.com 1.10,2013-06-04 04:18:00,
2013-06-04 00:33:00,77.1,73.0,29.95,WNW,291,6.0,-999.0,87,-99.99,,,0.00,weatherlink.com 1.10,2013-06-04 04:33:00,
2013-06-04 00:48:00,76.6,73.0,29.95,WNW,291,5.0,-999.0,88,-99.99,,,0.00,weatherlink.com 1.10,2013-06-04 04:48:00,
2013-06-04 01:04:00,76.4,73.0,29.94,WNW,290,3.0,-999.0,90,-99.99,,,0.00,weatherlink.com 1.10,2013-06-04 05:04:00,
2013-06-04 01:19:00,76.2,73.0,29.93,West,279,5.0,-999.0,90,-99.99,,,0.00,weatherlink.com 1.10,2013-06-04 05:19:00,
2013-06-04 01:34:00,76.0,73.0,29.93,West,280,4.0,-999.0,90,-99.99,,,0.00,weatherlink.com 1.10,2013-06-04 05:34:00,
2013-06-04 01:49:00,76.0,73.0,29.92,WNW,288,7.0,-999.0,91,-99.99,,,0.00,weatherlink.com 1.10,2013-06-04 05:49:00,
2013-06-04 02:04:00,76.0,73.0,29.92,WNW,288,4.0,-999.0,91,-99.99,,,0.00,weatherlink.com 1.10,2013-06-04 06:04:00,
2013-06-04 02:19:00,75.7,73.0,29.92,West,275,4.0,-999.0,91,-99.99,,,0.00,weatherlink.com 1.10,2013-06-04 06:19:00,
2013-06-04 02:34:00,75.7,73.0,29.91,WNW,284,5.0,-999.0,90,-99.99,,,0.00,weatherlink.com 1.10,2013-06-04 06:34:00,
2013-06-04 02:49:00,75.7,73.0,29.91,West,279,4.0,-999.0,90,-99.99,,,0.00,weatherlink.com 1.10,2013-06-04 06:49:00,
2013-06-04 03:04:00,75.6,73.0,29.91,West,281,5.0,-999.0,90,-99.99,,,0.00,weatherlink.com 1.10,2013-06-04 07:04:00,
2013-06-04 03:19:00,75.5,72.0,29.90,WNW,288,6.0,-999.0,89,-99.99,,,0.00,weatherlink.com 1.10,2013-06-04 07:19:00,
2013-06-04 03:34:00,75.4,72.0,29.89,West,269,5.0,-999.0,88,-99.99,,,0.00,weatherlink.com 1.10,2013-06-04 07:34:00,
2013-06-04 03:49:00,75.5,72.0,29.89,WNW,284,3.0,-999.0,88,-99.99,,,0.00,weatherlink.com 1.10,2013-06-04 07:49:00,
2013-06-04 04:04:00,75.5,72.0,29.89,West,275,4.0,-999.0,88,-99.99,,,0.00,weatherlink.com 1.10,2013-06-04 08:04:00,
2013-06-04 04:19:00,75.5,72.0,29.89,West,275,3.0,-999.0,89,-99.99,,,0.00,weatherlink.com 1.10,2013-06-04 08:19:00,
2013-06-04 04:34:00,75.5,72.0,29.89,West,281,4.0,-999.0,89,-99.99,,,0.00,weatherlink.com 1.10,2013-06-04 08:34:00,
2013-06-04 04:49:00,75.3,72.0,29.89,West,265,3.0,-999.0,89,-99.99,,,0.00,weatherlink.com 1.10,2013-06-04 08:49:00,
2013-06-04 05:04:00,75.2,72.0,29.90,West,267,0.0,-999.0,89,-99.99,,,0.00,weatherlink.com 1.10,2013-06-04 09:04:00,
2013-06-04 05:19:00,75.0,72.0,29.90,West,271,0.0,-999.0,90,-99.99,,,0.00,weatherlink.com 1.10,2013-06-04 09:19:00,
2013-06-04 05:34:00,74.9,72.0,29.90,West,271,3.0,-999.0,90,-99.99,,,0.00,weatherlink.com 1.10,2013-06-04 09:34:00,
2013-06-04 05:49:00,74.8,72.0,29.91,West,276,2.0,-999.0,90,-99.99,,,0.00,weatherlink.com 1.10,2013-06-04 09:49:00,
2013-06-04 06:04:00,74.9,72.0,29.91,West,267,3.0,-999.0,90,-99.99,,,0.00,weatherlink.com 1.10,2013-06-04 10:04:00,
2013-06-04 06:19:00,74.9,72.0,29.92,WNW,286,2.0,-999.0,90,-99.99,,,0.00,weatherlink.com 1.10,2013-06-04 10:19:00,
2013-06-04 06:34:00,-999.0,-99.9,29.92,North,-999,-999.0,-999.0,-999,-99.99,,,0.00,weatherlink.com 1.10,2013-06-04 10:34:00,
2013-06-04 06:49:00,-999.0,-99.9,29.93,North,-999,-999.0,-999.0,-999,-99.99,,,0.00,weatherlink.com 1.10,2013-06-04 10:49:00,
2013-06-04 07:04:00,-999.0,-99.9,29.93,North,-999,-999.0,-999.0,-999,-99.99,,,0.00,weatherlink.com 1.10,2013-06-04 11:04:00,
2013-06-04 07:19:00,-999.0,-99.9,29.94,North,-999,-999.0,-999.0,-999,-99.99,,,0.00,weatherlink.com 1.10,2013-06-04 11:19:00,
2013-06-04 07:34:00,75.3,73.0,29.94,WNW,286,2.0,-999.0,91,-99.99,,,0.00,weatherlink.com 1.10,2013-06-04 11:34:00,
2013-06-04 07:53:00,75.5,72.0,29.94,West,271,3.0,-999.0,89,-99.99,,,0.00,weatherlink.com 1.10,2013-06-04 11:53:00,
2013-06-04 08:05:00,75.9,72.0,29.95,West,276,3.0,-999.0,87,-99.99,,,0.00,weatherlink.com 1.10,2013-06-04 12:05:00,
2013-06-04 08:21:00,76.2,72.0,29.95,West,274,3.0,-999.0,87,-99.99,,,0.00,weatherlink.com 1.10,2013-06-04 12:21:00,
2013-06-04 08:38:00,76.7,72.0,29.95,WNW,285,0.0,-999.0,86,-99.99,,,0.00,weatherlink.com 1.10,2013-06-04 12:38:00,
2013-06-04 08:54:00,76.9,72.0,29.96,NNW,340,0.0,-999.0,85,-99.99,,,0.00,weatherlink.com 1.10,2013-06-04 12:54:00,
2013-06-04 09:12:00,77.4,72.0,29.96,NW,307,1.0,-999.0,84,-99.99,,,0.00,weatherlink.com 1.10,2013-06-04 13:12:00,
2013-06-04 09:27:00,77.7,72.0,29.97,WNW,292,4.0,-999.0,83,-99.99,,,0.00,weatherlink.com 1.10,2013-06-04 13:27:00,
2013-06-04 09:43:00,77.5,72.0,29.97,WNW,283,4.0,-999.0,82,-99.99,,,0.00,weatherlink.com 1.10,2013-06-04 13:43:00,
2013-06-04 10:01:00,78.5,72.0,29.97,West,262,3.0,-999.0,80,-99.99,,,0.00,weatherlink.com 1.10,2013-06-04 14:01:00,
2013-06-04 10:17:00,79.6,72.0,29.97,NW,325,2.0,-999.0,77,-99.99,,,0.00,weatherlink.com 1.10,2013-06-04 14:17:00,
2013-06-04 10:33:00,80.2,72.0,29.97,West,274,2.0,-999.0,76,-99.99,,,0.00,weatherlink.com 1.10,2013-06-04 14:33:00,
2013-06-04 10:49:00,80.3,72.0,29.97,NW,316,5.0,-999.0,76,-99.99,,,0.00,weatherlink.com 1.10,2013-06-04 14:49:00,
2013-06-04 11:06:00,80.8,72.0,29.97,West,280,8.0,-999.0,75,-99.99,,,0.00,weatherlink.com 1.10,2013-06-04 15:06:00,
2013-06-04 11:23:00,82.3,73.0,29.97,SE,136,0.0,-999.0,73,-99.99,,,0.00,weatherlink.com 1.10,2013-06-04 15:23:00,
2013-06-04 11:40:00,82.8,73.0,29.97,West,277,5.0,-999.0,71,-99.99,,,0.00,weatherlink.com 1.10,2013-06-04 15:40:00,
2013-06-04 11:56:00,83.2,72.0,29.97,West,272,6.0,-999.0,69,-99.99,,,0.00,weatherlink.com 1.10,2013-06-04 15:56:00,
2013-06-04 12:12:00,84.5,72.0,29.96,NNW,328,6.0,-999.0,67,-99.99,,,0.00,weatherlink.com 1.10,2013-06-04 16:12:00,
2013-06-04 12:28:00,84.2,72.0,29.96,West,277,5.0,-999.0,66,-99.99,,,0.00,weatherlink.com 1.10,2013-06-04 16:28:00,
2013-06-04 12:45:00,83.5,71.0,29.95,WNW,290,9.0,-999.0,65,-99.99,,,0.00,weatherlink.com 1.10,2013-06-04 16:45:00,
2013-06-04 13:01:00,83.2,71.0,29.95,WSW,258,8.0,-999.0,66,-99.99,,,0.00,weatherlink.com 1.10,2013-06-04 17:01:00,
2013-06-04 13:18:00,84.4,71.0,29.94,WNW,286,9.0,-999.0,64,-99.99,,,0.00,weatherlink.com 1.10,2013-06-04 17:18:00,
2013-06-04 13:34:00,84.6,72.0,29.94,WNW,294,1.0,-999.0,65,-99.99,,,0.00,weatherlink.com 1.10,2013-06-04 17:34:00,
2013-06-04 13:51:00,85.8,72.0,29.93,NNW,331,2.0,-999.0,63,-99.99,,,0.00,weatherlink.com 1.10,2013-06-04 17:51:00,
2013-06-04 14:07:00,82.6,71.0,29.94,WNW,294,9.0,-999.0,68,-99.99,,,0.00,weatherlink.com 1.10,2013-06-04 18:07:00,
2013-06-04 14:24:00,79.3,70.0,29.94,WSW,250,7.0,-999.0,74,-99.99,,,0.00,weatherlink.com 1.10,2013-06-04 18:24:00,
2013-06-04 14:40:00,77.6,70.0,29.94,WSW,246,6.0,-999.0,78,-99.99,,,0.00,weatherlink.com 1.10,2013-06-04 18:40:00,
2013-06-04 14:57:00,78.0,70.0,29.94,West,262,2.0,-999.0,76,-99.99,,,0.00,weatherlink.com 1.10,2013-06-04 18:57:00,
2013-06-04 15:13:00,78.9,71.0,29.94,SW,214,2.0,-999.0,76,-99.99,,,0.00,weatherlink.com 1.10,2013-06-04 19:13:00,
2013-06-04 15:30:00,80.3,71.0,29.93,SW,227,5.0,-999.0,74,-99.99,,,0.00,weatherlink.com 1.10,2013-06-04 19:30:00,
2013-06-04 15:45:00,80.4,71.0,29.93,SW,233,0.0,-999.0,74,-99.99,,,0.00,weatherlink.com 1.10,2013-06-04 19:45:00,
2013-06-04 16:03:00,81.1,72.0,29.92,WSW,237,1.0,-999.0,73,-99.99,,,0.00,weatherlink.com 1.10,2013-06-04 20:03:00,
2013-06-04 16:19:00,82.2,71.0,29.92,West,269,6.0,-999.0,69,-99.99,,,0.00,weatherlink.com 1.10,2013-06-04 20:19:00,
2013-06-04 16:35:00,82.5,71.0,29.92,SSW,203,2.0,-999.0,68,-99.99,,,0.00,weatherlink.com 1.10,2013-06-04 20:35:00,
2013-06-04 16:52:00,82.2,72.0,29.93,NNW,345,4.0,-999.0,70,-99.99,,,0.00,weatherlink.com 1.10,2013-06-04 20:52:00,
2013-06-04 17:08:00,77.5,72.0,29.94,NW,310,17.0,-999.0,83,-99.99,,,0.00,weatherlink.com 1.10,2013-06-04 21:08:00,
2013-06-04 17:24:00,75.5,72.0,29.94,NW,325,10.0,-999.0,88,-99.99,,,0.00,weatherlink.com 1.10,2013-06-04 21:24:00,
2013-06-04 17:38:00,73.5,71.0,29.94,WNW,301,8.0,-999.0,91,-99.99,,,0.00,weatherlink.com 1.10,2013-06-04 21:38:00,
2013-06-04 17:53:00,72.7,70.0,29.95,North,355,5.0,-999.0,92,-99.99,,,0.00,weatherlink.com 1.10,2013-06-04 21:53:00,
2013-06-04 18:08:00,72.4,70.0,29.95,NNW,329,3.0,-999.0,93,-99.99,,,0.00,weatherlink.com 1.10,2013-06-04 22:08:00,
2013-06-04 18:23:00,72.2,70.0,29.94,North,355,0.0,-999.0,94,-99.99,,,0.00,weatherlink.com 1.10,2013-06-04 22:23:00,
2013-06-04 18:38:00,72.4,71.0,29.94,WNW,296,3.0,-999.0,94,-99.99,,,0.00,weatherlink.com 1.10,2013-06-04 22:38:00,
2013-06-04 18:54:00,72.2,70.0,29.94,WNW,288,1.0,-999.0,94,-99.99,,,0.00,weatherlink.com 1.10,2013-06-04 22:54:00,
2013-06-04 19:09:00,72.0,70.0,29.94,WNW,288,2.0,-999.0,94,-99.99,,,0.00,weatherlink.com 1.10,2013-06-04 23:09:00,
2013-06-04 19:24:00,72.0,70.0,29.95,West,278,3.0,-999.0,94,-99.99,,,0.00,weatherlink.com 1.10,2013-06-04 23:24:00,
2013-06-04 19:39:00,72.2,71.0,29.95,West,279,2.0,-999.0,95,-99.99,,,0.00,weatherlink.com 1.10,2013-06-04 23:39:00,
2013-06-04 19:54:00,72.3,71.0,29.96,West,279,2.0,-999.0,95,-99.99,,,0.00,weatherlink.com 1.10,2013-06-04 23:54:00,
2013-06-04 20:09:00,72.6,71.0,29.96,West,279,0.0,-999.0,95,-99.99,,,0.00,weatherlink.com 1.10,2013-06-05 00:09:00,
2013-06-04 20:24:00,72.8,71.0,29.97,West,279,1.0,-999.0,95,-99.99,,,0.00,weatherlink.com 1.10,2013-06-05 00:24:00,
2013-06-04 20:39:00,73.0,72.0,29.97,West,279,3.0,-999.0,95,-99.99,,,0.00,weatherlink.com 1.10,2013-06-05 00:39:00,
2013-06-04 20:54:00,73.3,72.0,29.98,WNW,285,4.0,-999.0,95,-99.99,,,0.00,weatherlink.com 1.10,2013-06-05 00:54:00,
2013-06-04 21:09:00,73.5,72.0,29.98,West,275,9.0,-999.0,94,-99.99,,,0.00,weatherlink.com 1.10,2013-06-05 01:09:00,
2013-06-04 21:24:00,72.3,70.0,29.99,West,270,10.0,-999.0,93,-99.99,,,0.00,weatherlink.com 1.10,2013-06-05 01:24:00,
2013-06-04 21:39:00,71.8,70.0,29.99,WNW,300,5.0,-999.0,93,-99.99,,,0.00,weatherlink.com 1.10,2013-06-05 01:39:00,
2013-06-04 21:54:00,71.8,70.0,29.99,WNW,284,6.0,-999.0,93,-99.99,,,0.00,weatherlink.com 1.10,2013-06-05 01:54:00,
2013-06-04 22:09:00,71.7,70.0,29.99,North,10,7.0,-999.0,94,-99.99,,,0.00,weatherlink.com 1.10,2013-06-05 02:09:00,
2013-06-04 22:24:00,71.6,70.0,29.99,WNW,289,10.0,-999.0,94,-99.99,,,0.00,weatherlink.com 1.10,2013-06-05 02:24:00,
2013-06-04 22:39:00,71.7,70.0,29.99,NW,311,3.0,-999.0,94,-99.99,,,0.00,weatherlink.com 1.10,2013-06-05 02:39:00,
2013-06-04 22:54:00,71.7,70.0,29.99,NW,304,2.0,-999.0,93,-99.99,,,0.00,weatherlink.com 1.10,2013-06-05 02:54:00,
2013-06-04 23:09:00,71.8,70.0,30.00,NW,304,1.0,-999.0,93,-99.99,,,0.00,weatherlink.com 1.10,2013-06-05 03:09:00,
2013-06-04 23:24:00,71.7,70.0,30.00,NW,304,0.0,-999.0,93,-99.99,,,0.00,weatherlink.com 1.10,2013-06-05 03:24:00,
2013-06-04 23:39:00,71.7,70.0,30.00,NW,304,0.0,-999.0,93,-99.99,,,0.00,weatherlink.com 1.10,2013-06-05 03:39:00,
2013-06-04 23:54:00,71.8,69.0,29.99,NW,304,0.0,-999.0,92,-99.99,,,0.00,weatherlink.com 1.10,2013-06-05 03:54:00,